FW6466 Weather Reports


Display with metric or nautical units.
time (UTC)temp
F
wind
direction
speed
MPH
gust
MPH
rain 1hr
in
rain 24hr
in
rain mn
in
humidity
%
barometer
mb
20260502231015 52 327 6.0 18.0 0.00 0.02 0.01 38 1011.1
20260502230019 52 321 6.0 16.0 0.00 0.02 0.01 38 1011.0
20260502225016 51 324 6.0 14.0 0.00 0.02 0.01 39 1010.9
20260502224037 51 315 5.0 12.0 0.00 0.02 0.01 39 1010.9
20260502223016 51 319 8.0 16.0 0.00 0.02 0.01 38 1010.8
20260502222037 52 296 5.0 13.0 0.00 0.02 0.01 39 1010.8
20260502221015 52 311 4.0 13.0 0.00 0.02 0.01 38 1010.8
20260502220328 53 315 4.0 6.0 0.00 0.02 0.01 37 1010.8
20260502215516 54 323 4.0 11.0 0.00 0.02 0.01 35 1010.8
20260502214903 56 315 5.0 18.0 0.00 0.02 0.01 33 1010.8
20260502214017 57 320 6.0 19.0 0.00 0.02 0.01 33 1010.8
20260502213036 59 326 6.0 18.0 0.00 0.02 0.01 31 1010.8
20260502212015 59 335 5.0 14.0 0.00 0.02 0.01 32 1010.8
20260502211308 60 0 4.0 6.0 0.00 0.02 0.01 32 1010.8
20260502210347 59 315 5.0 11.0 0.00 0.02 0.01 31 1010.7
20260502205515 58 314 4.0 15.0 0.00 0.02 0.01 32 1010.7
20260502204856 57 0 6.0 17.0 0.00 0.02 0.01 31 1010.7
20260502203856 58 0 7.0 9.0 0.00 0.02 0.01 31 1010.8
20260502203015 58 303 8.0 20.0 0.00 0.02 0.01 32 1010.8
20260502202308 59 315 6.0 6.0 0.00 0.02 0.01 32 1010.9
20260502201017 58 314 9.0 24.0 0.00 0.02 0.01 30 1011.0
20260502200016 59 324 7.0 19.0 0.00 0.02 0.01 30 1011.1
20260502195016 59 333 7.0 19.0 0.00 0.02 0.01 31 1011.1
20260502194017 58 321 6.0 13.0 0.00 0.02 0.01 33 1011.1
20260502193407 57 338 7.0 14.0 0.00 0.02 0.01 34 1011.2
20260502192017 57 317 9.0 18.0 0.00 0.02 0.01 34 1011.2
20260502191017 57 320 9.0 19.0 0.00 0.02 0.01 34 1011.3
20260502190017 57 296 7.0 21.0 0.00 0.02 0.01 35 1011.3
20260502185016 57 323 10.0 20.0 0.00 0.02 0.01 34 1011.3
20260502184017 57 320 9.0 22.0 0.00 0.02 0.01 35 1011.2
20260502183016 57 295 7.0 20.0 0.00 0.02 0.01 35 1011.2
20260502182409 58 0 6.0 12.0 0.00 0.02 0.01 33 1011.2
20260502181517 58 318 7.0 18.0 0.00 0.02 0.01 35 1011.2
20260502180516 58 316 5.0 18.0 0.00 0.02 0.01 36 1011.3
20260502170516 57 313 6.0 12.0 0.00 0.02 0.01 42 1011.5
20260502164037 55 324 6.0 14.0 0.00 0.02 0.01 43 1011.6
20260502163308 56 315 5.0 7.0 0.00 0.02 0.01 46 1011.6
20260502162536 56 326 7.0 19.0 0.00 0.02 0.01 47 1011.6
20260502161516 56 317 5.0 11.0 0.00 0.02 0.01 45 1011.6
20260502160536 56 330 4.0 10.0 0.00 0.02 0.01 48 1011.6
20260502151820 52 0 4.0 3.0 0.00 0.02 0.01 54 1011.9
20260502150516 51 325 5.0 13.0 0.00 0.02 0.01 55 1011.9
20260502130517 48 324 7.0 16.0 0.00 0.02 0.01 66 1012.1
20260502123017 47 319 4.0 11.0 0.00 0.02 0.01 74 1012.0
20260502122321 45 23 3.0 11.0 0.00 0.02 0.01 75 1011.9
20260502121308 45 0 4.0 9.0 0.00 0.02 0.01 76 1011.9
20260502115331 44 270 5.0 10.0 0.00 0.02 0.01 78 1011.9
20260502113856 44 315 5.0 11.0 0.00 0.02 0.01 79 1011.7
20260502112813 44 315 5.0 8.0 0.00 0.02 0.01 79 1011.6
20260502112017 43 319 7.0 14.0 0.00 0.02 0.01 79 1011.5
20260502111312 44 338 4.0 9.0 0.00 0.02 0.01 79 1011.5
20260502110307 44 315 5.0 5.0 0.00 0.02 0.01 79 1011.4
20260502105515 44 323 6.0 11.0 0.00 0.02 0.01 79 1011.4
20260502104809 44 45 5.0 9.0 0.00 0.02 0.01 79 1011.3
20260502104017 43 324 4.0 14.0 0.00 0.02 0.01 79 1011.3
20260502103313 43 338 4.0 8.0 0.00 0.02 0.01 79 1011.3
20260502102517 43 307 4.0 11.0 0.00 0.02 0.01 79 1011.3
20260502101516 43 324 5.0 12.0 0.00 0.02 0.01 79 1011.3
20260502100517 44 320 4.0 12.0 0.00 0.02 0.01 79 1011.2
20260502091309 45 315 3.0 5.0 0.00 0.02 0.01 77 1011.0
20260502071515 48 180 1.0 1.0 0.00 0.02 0.01 73 1010.8
20260502071147 48 225 1.0 0.0 0.00 0.02 0.01 72 1011.1
20260502065515 48 317 1.0 3.0 0.00 0.02 0.01 73 1011.2
20260502064813 48 225 1.0 1.0 0.00 0.02 0.01 73 1011.2
20260502063856 48 0.0 0.0 0.00 0.02 0.01 74 1011.1
20260502062517 48 0.0 0.0 0.00 0.02 0.01 73 1011.0
20260502061809 48 0.0 0.0 0.00 0.02 0.01 72 1011.1
20260502060516 48 0.0 0.0 0.00 0.02 0.01 72 1011.2
20260502055857 48 0.0 0.0 0.00 0.02 0.01 73 1011.3
20260502055017 48 0.0 0.0 0.00 0.02 0.01 73 1011.3
20260502054016 48 0.0 0.0 0.00 0.02 0.01 73 1011.3
20260502053313 48 225 1.0 1.0 0.01 0.02 0.01 72 1011.4
20260502052017 48 225 1.0 1.0 0.01 0.02 0.01 73 1011.5
20260502051356 48 0.0 1.0 0.01 0.02 0.01 73 1011.5
20260502050018 48 225 0.0 1.0 0.01 0.02 0.01 72 1011.4
20260502045309 48 180 1.0 0.0 0.01 0.02 0.01 70 1011.5
20260502044016 49 215 1.0 2.0 0.01 0.02 0.01 71 1011.5
20260502043313 49 45 1.0 1.0 0.00 0.01 0.00 69 1011.6
20260502042517 49 315 0.0 2.0 0.00 0.01 0.00 70 1011.5
20260502041810 49 0.0 1.0 0.00 0.01 0.00 69 1011.3
20260502040822 49 203 1.0 1.0 0.00 0.01 0.00 68 1011.3
20260502035857 49 270 1.0 2.0 0.00 0.01 0.01 68 1011.3
20260502034517 49 291 0.0 1.0 0.00 0.01 0.01 66 1011.4
20260502033855 50 225 1.0 2.0 0.01 0.01 0.01 68 1011.4
20260502033015 50 238 2.0 4.0 0.01 0.01 0.01 68 1011.4
20260502032017 50 211 1.0 3.0 0.01 0.01 0.01 66 1011.4
20260502031016 50 200 0.0 3.0 0.01 0.01 0.01 65 1011.4
20260502030313 51 135 1.0 3.0 0.01 0.01 0.01 65 1011.4
20260502025517 51 194 1.0 2.0 0.01 0.01 0.01 63 1011.4
20260502024808 51 180 1.0 2.0 0.01 0.01 0.01 61 1011.4
20260502023515 52 217 1.0 4.0 0.01 0.01 0.01 59 1011.4
20260502022856 53 180 1.0 2.0 0.00 0.00 0.00 54 1011.4
20260502021516 54 241 1.0 7.0 0.00 0.00 0.00 52 1011.3
20260502020517 54 328 1.0 5.0 0.00 0.00 0.00 49 1011.3
20260502015516 54 292 2.0 6.0 0.00 0.00 0.00 49 1011.2
20260502014557 54 329 1.0 2.0 0.00 0.00 0.00 51 1011.0
20260502013820 54 0.0 0.0 0.00 0.00 0.00 49 1010.9
20260502012810 54 180 1.0 1.0 0.00 0.00 0.00 47 1010.8
20260502011809 54 180 1.0 1.0 0.00 0.00 0.00 46 1010.8
20260502011036 54 184 1.0 2.0 0.00 0.00 0.00 47 1010.7
20260502010356 54 203 1.0 1.0 0.00 0.00 0.00 45 1010.6
20260502005404 54 270 1.0 2.0 0.00 0.00 0.00 46 1010.5
20260502004015 55 270 1.0 6.0 0.00 0.00 0.00 45 1010.4
20260502003036 55 199 1.0 3.0 0.00 0.00 0.00 44 1010.4
20260502002016 55 212 1.0 3.0 0.00 0.00 0.00 43 1010.4
20260502001057 56 181 1.0 3.0 0.00 0.00 0.00 43 1010.3
20260502000017 56 223 1.0 5.0 0.00 0.00 0.00 42 1010.2
20260501235036 57 359 1.0 1.0 0.00 0.00 0.00 40 1010.2
20260501234311 57 180 1.0 2.0 0.00 0.00 0.00 39 1010.1
20260501233015 58 326 1.0 5.0 0.00 0.00 0.00 38 1009.9
20260501232408 58 338 3.0 2.0 0.00 0.00 0.00 39 1009.8